Location: The Saddle
(36.8333°N, 80.3417°W)
Time: 00:01:52
(UTC-05:00)

O/OREOS (USA 219) - Visible Passes

Search period start: 27 February 2024 00:00
Search period end: 08 March 2024 00:00
Orbit: 621 x 646 km, 72.0° (Epoch: 22 May)

Date Brightness Start Highest point End Pass type
(mag) Time Alt. Az. Time Alt. Az. Time Alt. Az.
27 Feb ? 05:04:33 10° SSE 05:08:22 27° ESE 05:12:14 10° NE visible
28 Feb ? 05:25:44 10° S 05:30:14 65° ESE 05:34:48 10° NNE visible
29 Feb ? 04:11:22 10° SE 04:13:25 13° E 04:15:28 10° ENE visible
29 Feb ? 05:47:51 10° SW 05:52:17 52° WNW 05:56:47 10° N visible
01 Mar ? 04:32:38 18° SSE 04:35:08 30° ESE 04:39:10 10° NE visible
01 Mar ? 06:10:52 10° WSW 06:14:32 23° WNW 06:18:14 10° N visible
02 Mar ? 04:55:38 43° S 04:57:02 74° ESE 05:01:38 10° NNE visible
03 Mar ? 03:40:47 14° E 03:40:47 14° E 03:42:41 10° ENE visible
03 Mar ? 05:18:17 41° W 05:19:07 46° WNW 05:23:33 10° N visible
04 Mar ? 04:03:15 28° ENE 04:03:15 28° ENE 04:06:05 10° NE visible
04 Mar ? 05:40:44 20° WNW 05:41:23 21° WNW 05:44:54 10° N visible
05 Mar ? 04:25:32 39° NNE 04:25:32 39° NNE 04:28:28 10° NNE visible
06 Mar ? 04:47:42 29° NNW 04:47:42 29° NNW 04:50:19 10° N visible
07 Mar ? 03:32:17 14° NE 03:32:17 14° NE 03:32:59 10° NE visible
07 Mar ? 05:09:46 16° NW 05:09:46 16° NW 05:11:32 10° NNW visible
